Total_Precipitation_Accumulation
0.03 0.01 0.01 0.00 0.00 0.00 0.00 0.01 0.02 0.03 0.05 0.06 0.02 0.01 0.01 0.00 0.01 0.00 0.00 0.00 0.00 0.00 0.00 0.01 0.02 0.03 0.03 0.04 0.04 0.04 0.05 0.06 0.06 0.05 0.05 0.09 0.08 0.06 0.06 0.04 0.03 0.05 0.08
0.11 0.09 0.09 0.11 0.11 0.14 0.11 0.09 0.11 0.10 0.10 0.02 0.01 0.01 0.01 0.00 0.00 0.00 0.00 0.00 0.00 0.00 0.00 0.01 0.02 0.03 0.05 0.06 0.05 0.05 0.05 0.05 0.05 0.05 0.05 0.07 0.08 0.09 0.06 0.04 0.05 0.08 0.08
0.23 0.26 0.22 0.12 0.06 0.05 0.03 0.02 0.01 0.00 0.00 0.00 0.00 0.00 0.00 0.01 0.01 0.00 0.00 0.00 0.00 0.00 0.00 0.00 0.01 0.03 0.03 0.03 0.03 0.04 0.06 0.05 0.05 0.05 0.06 0.07 0.10 0.09 0.06 0.07 0.10 0.08 0.05
0.11 0.07 0.03 0.01 0.00 0.02 0.01 0.00 0.00 0.00 0.00 0.00 0.00 0.00 0.00 0.00 0.00 0.00 0.00 0.00 0.00 0.00 0.00 0.00 0.00 0.00 0.00 0.00 0.02 0.03 0.05 0.06 0.06 0.07 0.08 0.11 0.12 0.11 0.11 0.13 0.11 0.09 0.09
0.11 0.13 0.05 0.01 0.00 0.00 0.00 0.00 0.00 0.00 0.00 0.00 0.00 0.00 0.00 0.00 0.00 0.00 0.00 0.00 0.00 0.00 0.00 0.00 0.00 0.00 0.01 0.01 0.01 0.02 0.06 0.09 0.09 0.10 0.13 0.18 0.21 0.22 0.24 0.21 0.25 0.26 0.20
0.00 0.01 0.00 0.00 0.00 0.00 0.00 0.00 0.00 0.00 0.00 0.00 0.00 0.00 0.00 0.00 0.00 0.00 0.00 0.00 0.00 0.00 0.00 0.00 0.00 0.00 0.02 0.04 0.04 0.04 0.04 0.07 0.11 0.15 0.19 0.24 0.28 0.28 0.30 0.31 0.28 0.27 0.25
0.00 0.00 0.00 0.00 0.00 0.00 0.00 0.00 0.00 0.00 0.00 0.00 0.00 0.00 0.00 0.00 0.00 0.00 0.00 0.00 0.00 0.00 0.00 0.00 0.00 0.01 0.02 0.06 0.07 0.09 0.09 0.08 0.10 0.13 0.16 0.23 0.35 0.40 0.43 0.48 0.53 0.52 0.43
0.00 0.00 0.00 0.00 0.00 0.00 0.00 0.00 0.00 0.00 0.00 0.00 0.00 0.00 0.00 0.00 0.00 0.00 0.00 0.00 0.00 0.00 0.00 0.00 0.00 0.00 0.00 0.01 0.05 0.10 0.14 0.19 0.26 0.31 0.39 0.45 0.50 0.51 0.45 0.39 0.39 0.37 0.35
0.00 0.00 0.00 0.00 0.00 0.00 0.00 0.00 0.00 0.00 0.00 0.00 0.00 0.00 0.00 0.00 0.00 0.00 0.00 0.00 0.00 0.00 0.00 0.00 0.00 0.00 0.00 0.00 0.02 0.03 0.06 0.09 0.16 0.27 0.47 0.73 0.93 0.98 0.99 0.78 0.62 0.56 0.56
0.02 0.01 0.00 0.00 0.00 0.00 0.00 0.00 0.00 0.00 0.00 0.00 0.00 0.00 0.00 0.00 0.00 0.00 0.00 0.00 0.00 0.00 0.00 0.00 0.00 0.00 0.00 0.00 0.01 0.03 0.06 0.07 0.12 0.20 0.39 0.58 0.64 0.77 0.95 1.01 0.95 0.85 0.83
0.00 0.00 0.00 0.00 0.00 0.02 0.06 0.04 0.01 0.00 0.00 0.00 0.00 0.00 0.00 0.00 0.00 0.00 0.00 0.00 0.00 0.00 0.00 0.00 0.00 0.00 0.00 0.00 0.01 0.02 0.02 0.03 0.07 0.14 0.31 0.63 0.87 0.88 0.80 0.77 0.76 0.79 0.79
0.00 0.00 0.00 0.03 0.10 0.14 0.16 0.08 0.01 0.01 0.00 0.00 0.00 0.00 0.00 0.00 0.00 0.00 0.00 0.00 0.00 0.00 0.00 0.00 0.00 0.00 0.01 0.01 0.02 0.03 0.02 0.02 0.03 0.05 0.14 0.31 0.55 0.84 1.02 1.17 1.13 1.06 0.95
0.01 0.01 0.03 0.04 0.11 0.17 0.14 0.10 0.06 0.03 0.01 0.00 0.00 0.00 0.00 0.00 0.00 0.00 0.01 0.00 0.00 0.00 0.00 0.00 0.00 0.01 0.01 0.05 0.06 0.04 0.06 0.09 0.14 0.17 0.17 0.20 0.33 0.65 0.89 0.94 0.94 1.04 1.00
0.02 0.03 0.06 0.10 0.12 0.13 0.12 0.08 0.05 0.02 0.00 0.00 0.00 0.00 0.00 0.00 0.00 0.00 0.00 0.02 0.02 0.00 0.00 0.00 0.00 0.01 0.04 0.03 0.03 0.05 0.11 0.13 0.14 0.22 0.27 0.33 0.38 0.44 0.60 0.84 0.96 1.07 1.21
0.09 0.12 0.08 0.08 0.09 0.08 0.07 0.06 0.03 0.01 0.00 0.00 0.00 0.00 0.00 0.00 0.00 0.00 0.00 0.01 0.08 0.07 0.01 0.00 0.00 0.00 0.00 0.00 0.00 0.00 0.02 0.08 0.20 0.25 0.23 0.28 0.47 0.62 0.76 0.74 0.80 0.79 0.80
0.12 0.09 0.07 0.08 0.08 0.08 0.05 0.03 0.02 0.01 0.00 0.00 0.00 0.00 0.00 0.00 0.00 0.00 0.00 0.02 0.08 0.15 0.11 0.00 0.00 0.00 0.00 0.00 0.00 0.00 0.00 0.00 0.02 0.11 0.22 0.24 0.37 0.66 0.90 1.03 1.03 1.09 1.06
0.16 0.16 0.14 0.11 0.10 0.07 0.05 0.03 0.01 0.00 0.00 0.00 0.00 0.00 0.00 0.00 0.00 0.01 0.01 0.04 0.05 0.13 0.13 0.01 0.01 0.01 0.02 0.02 0.00 0.00 0.00 0.00 0.00 0.01 0.03 0.12 0.20 0.31 0.62 1.00 1.07 1.05 1.29
0.13 0.13 0.10 0.06 0.04 0.04 0.03 0.01 0.00 0.00 0.00 0.00 0.00 0.00 0.01 0.01 0.02 0.04 0.03 0.02 0.02 0.05 0.09 0.02 0.01 0.01 0.01 0.01 0.01 0.01 0.01 0.00 0.00 0.00 0.02 0.02 0.04 0.14 0.24 0.40 0.76 1.09 1.15
0.11 0.08 0.07 0.07 0.10 0.11 0.10 0.07 0.05 0.07 0.05 0.03 0.01 0.02 0.03 0.05 0.06 0.05 0.03 0.02 0.01 0.01 0.02 0.03 0.01 0.01 0.01 0.02 0.01 0.01 0.01 0.01 0.01 0.02 0.02 0.02 0.02 0.05 0.09 0.23 0.37 0.55 0.93
0.14 0.11 0.11 0.16 0.25 0.31 0.27 0.20 0.17 0.16 0.11 0.06 0.04 0.06 0.10 0.11 0.10 0.08 0.03 0.01 0.01 0.01 0.01 0.02 0.01 0.01 0.02 0.02 0.03 0.02 0.02 0.03 0.02 0.03 0.01 0.00 0.01 0.02 0.02 0.03 0.15 0.34 0.53
0.13 0.17 0.26 0.31 0.31 0.29 0.27 0.21 0.15 0.09 0.09 0.11 0.15 0.18 0.17 0.15 0.12 0.04 0.01 0.01 0.01 0.01 0.02 0.02 0.01 0.01 0.02 0.01 0.03 0.03 0.04 0.02 0.02 0.01 0.01 0.01 0.02 0.01 0.02 0.02 0.06 0.16 0.33
0.09 0.16 0.16 0.16 0.16 0.15 0.18 0.16 0.13 0.16 0.20 0.22 0.22 0.20 0.17 0.12 0.05 0.02 0.01 0.01 0.01 0.01 0.02 0.02 0.02 0.02 0.02 0.02 0.02 0.04 0.05 0.06 0.06 0.02 0.04 0.02 0.01 0.01 0.01 0.02 0.04 0.10 0.23
0.16 0.16 0.13 0.10 0.11 0.15 0.18 0.15 0.16 0.21 0.22 0.19 0.15 0.12 0.08 0.05 0.03 0.02 0.02 0.01 0.01 0.02 0.02 0.02 0.03 0.01 0.02 0.01 0.04 0.07 0.06 0.10 0.08 0.02 0.07 0.05 0.00 0.01 0.01 0.01 0.05 0.07 0.14
0.22 0.21 0.18 0.17 0.18 0.21 0.26 0.23 0.27 0.28 0.22 0.15 0.11 0.08 0.06 0.05 0.04 0.02 0.01 0.00 0.00 0.01 0.01 0.01 0.02 0.02 0.02 0.02 0.05 0.14 0.13 0.08 0.04 0.02 0.04 0.08 0.01 0.01 0.00 0.01 0.05 0.06 0.09
0.10 0.12 0.15 0.18 0.19 0.26 0.31 0.28 0.30 0.27 0.19 0.13 0.08 0.04 0.03 0.02 0.02 0.01 0.01 0.01 0.01 0.00 0.02 0.06 0.06 0.07 0.08 0.07 0.06 0.11 0.08 0.12 0.07 0.01 0.01 0.09 0.03 0.02 0.03 0.06 0.12 0.21 0.18
0.09 0.11 0.16 0.20 0.30 0.32 0.34 0.29 0.25 0.18 0.12 0.07 0.04 0.02 0.03 0.02 0.01 0.01 0.02 0.05 0.03 0.00 0.01 0.01 0.02 0.03 0.03 0.03 0.03 0.05 0.08 0.17 0.11 0.10 0.02 0.17 0.05 0.07 0.15 0.18 0.19 0.26 0.36